Weather Roundup
Issued by NWS

Home | Current Version | Previous Version | Text Only | Print | Product List | Glossary On
Versions: 1 2 3 4 5 6 7 8 9 10 11 12 13 14 15 16 17 18 19 20 21 22 23 24 25 26 27 28 29 30 31 32 33 34 35 36 37 38 39 40 41 42 43 44 45 46 47 48 49 50
000
NZUS93 KARX 040359
HRRWXR

CURRENT HOURLY OBSERVATIONS ACROSS
MUCH OF THE UPPER MISSISSIPPI VALLEY
NATIONAL WEATHER SERVICE LA CROSSE WI
1000 PM CST TUE MAR 03 2015


...SOUTHEAST MINNESOTA...


CITY           SKY/WX    TMP DP  RH WIND       PRES   REMARKS
ROCHESTER      PTCLDY     9   3  77 NW21G30   29.94R WCI -11
ROCHESTER/MAYO CLOUDY    10   4  74 W14G28    29.95R WCI  -5
WINONA         CLEAR     18   9  68 NW16G22   29.96R WCI   3
AUSTIN         CLEAR      9   1  72 NW18G25   29.97R WCI -10
ALBERT LEA     CLEAR     10   3  72 NW13G20   29.99R WCI  -5
DODGE CENTER   PTCLDY     9   3  78 NW17G24   29.95R WCI -10
PRESTON        MOCLDY    10   5  82 NW20G29   29.94R FOG     WCI  -9
OWATONNA       CLEAR      9   1  72 NW17      29.99R WCI -10
FARIBAULT      CLEAR      9   1  72 W13G21    30.00R WCI  -7
$$

...ELSEWHERE IN MINNESOTA...


CITY           SKY/WX    TMP DP  RH WIND       PRES   REMARKS
MINNEAPOLIS    CLEAR      9  -2  61 NW18G26   29.99R WCI -10
INTNL FALLS    MOCLDY    -1  -9  68 W9G21     29.83R WCI -16
DULUTH         CLEAR      5  -5  63 W14       29.79R WCI -12
RED WING       PTCLDY    12   1  62 W13       29.96R WCI  -3
REDWOOD FALLS  CLEAR      9  -1  64 NW18G24   30.05R WCI -10
MANKATO        CLEAR      9   0  66 NW23      30.01R WCI -12
FAIRMONT       FAIR      10   1  67 W15       30.02R WCI  -6
$$

...SOUTHWEST WISCONSIN...


CITY           SKY/WX    TMP DP  RH WIND       PRES   REMARKS
LA CROSSE      CLEAR     18   8  65 NW17G23   29.93R WCI   3
PRAIRIE DU CHI PTCLDY    19  10  66 NW17      29.93R WCI   4
BOSCOBEL       PTCLDY    23  13  65 W10G20    29.92R WCI  12
LONE ROCK      CLOUDY    28  18  66 W15       29.86R WCI  16
PLATTEVILLE    MOCLDY    23  18  81 W17       29.87R WCI   9
FORT MC COY    CLEAR     21  12  68 W14G20    29.87R WCI   8
VIROQUA        FAIR      18  11  75 NW20G28   29.85R WCI   1
WIS DELLS      NOT AVBL
$$

...ELSEWHERE IN WISCONSIN...


CITY           SKY/WX    TMP DP  RH WIND       PRES   REMARKS
MILWAUKEE      CLOUDY    30  22  72 SW8       29.82R WCI  22
MADISON        CLOUDY    30  21  69 W7        29.82R WCI  23
GREEN BAY      PTCLDY    27  17  66 W13       29.75R WCI  16
EAU CLAIRE     CLEAR     13   2  61 NW16G25   29.90R WCI  -3
BLACK RVR FLS  FAIR      21   8  56 W20G25    29.86R WCI   6
MEDFORD        FAIR      17   5  61 W15G21    29.76R WCI   2
WAUSAU         CLEAR     20   5  52 NW13G26   29.75R WCI   7
WIS RAPIDS     PTCLDY    23  10  57 W14       29.82R WCI  11
MARSHFIELD     PTCLDY    19   8  62 NW17G24   29.80R WCI   4
RICE LAKE      PTCLDY    13   3  64 W16G22    29.88R WCI  -3
$$

...NORTHEAST IOWA...


CITY           SKY/WX    TMP DP  RH WIND       PRES   REMARKS
DECORAH        CLOUDY    12   7  79 NW15      29.93R WCI  -4
MASON CITY     PTCLDY    10   3  73 NW18      30.02R WCI  -8
CHARLES CITY   MOCLDY    12   7  79 NW20G26   29.98R WCI  -6
OELWEIN        PTCLDY    14   7  73 NW18G25   29.95R WCI  -3
$$

...ELSEWHERE IN IOWA...


CITY           SKY/WX    TMP DP  RH WIND       PRES   REMARKS
DES MOINES     MOCLDY    20  10  65 N15       30.05R WCI   6
IOWA CITY      MOCLDY    22  14  71 NW13      30.00R WCI  10
FORT DODGE     FAIR      12   3  67 NW8       30.07R WCI   1
$$

...NORTHERN ILLINOIS...


CITY           SKY/WX    TMP DP  RH WIND       PRES   REMARKS
CHICAGO-OHARE  CLOUDY    31  23  72 W10       29.85R WCI  22
CHICAGO-MIDWAY CLOUDY    34  25  69 W8        29.87R WCI  27
MOLINE         CLOUDY    28  20  71 NW17G28   29.93R WCI  16
ROCKFORD       CLOUDY    31  23  72 NW14      29.88R WCI  21
PEORIA         CLOUDY    34  26  72 NW7       29.91F WCI  28
$$

NOTE: "FAIR" INDICATES FEW OR NO CLOUDS BELOW 12,000 FEET WITH NO
SIGNIFICANT WEATHER AND/OR OBSTRUCTIONS TO VISIBILITY. WIND
SPEEDS ARE IN MILES-PER-HOUR.



USA.gov is the U.S. government's official web portal to all federal, state and local government web resources and services.